Other Public Products
Issued by NWS Grand Forks, ND

Home | Current Version | Previous Version | Graphics & Text | Print | Product List | Glossary On
Versions: 1 2 3 4 5 6 7 8 9 10 11 12 13 14 15 16 17 18 19 20 21 22 23 24 25 26 27 28 29 30 31 32 33 34 35 36 37 38 39 40 41 42 43 44 45 46 47 48 49 50
000
FPUS83 KFGF 251210
OPUFGF
PRAIRIE TO PINES WEATHER ROUNDUP
NATIONAL WEATHER SERVICE EASTERN NORTH DAKOTA/GRAND FORKS ND
700 AM CDT THU MAY 25 2017

 **SATELLITE DATA USED TO AUGMENT SKY COVER AT AUTOMATED STATIONS**
 *****  WEATHER ACROSS EASTERN NORTH DAKOTA  *****

CITY           SKY/WX    TMP DP  RH WIND       PRES   REMARKS
GRAND FORKS    CLOUDY    52  44  74 SE18      29.53F
6HR MIN TEMP:  49; 6HR MAX TEMP:  53;

GRAND FORKS AF FAIR      49  43  77 SE13      29.53F
GRAND CITY NWS NOT AVBL
BUXTON         NOT AVBL
DEVILS LAKE    LGT RAIN  51  45  79 SE17G24   29.47F
6HR MIN TEMP:  51; 6HR MAX TEMP:  53; 6HR PCP: TRACE;

FARGO          FAIR      53  44  71 SE16G29   29.52F
6HR MIN TEMP:  50; 6HR MAX TEMP:  54;

WAHPETON ARPT  FAIR      50  43  76 SE16G22   29.56F
$$

 *****  WEATHER ACROSS CENTRAL AND WESTERN NORTH DAKOTA  *****

CITY           SKY/WX    TMP DP  RH WIND       PRES   REMARKS
JAMESTOWN      PTSUNNY   51  44  77 SE15G24   29.45S
6HR MIN TEMP:  50; 6HR MAX TEMP:  51; 6HR PCP: TRACE;

BISMARCK       FAIR      49  46  90 SE6       29.41F
6HR MIN TEMP:  48; 6HR MAX TEMP:  59; 6HR PCP:  0.01;

MINOT          FAIR      51  48  89 SE8       29.37F
6HR MIN TEMP:  51; 6HR MAX TEMP:  59; 6HR PCP:  0.07;

MINOT AFB      FAIR      50  50  98 S9        29.36F
6HR MIN TEMP:  50; 6HR MAX TEMP:  56; 6HR PCP:  0.04;

GARRISON         N/A     50  47  89 S12       29.38F
6HR MIN TEMP:  50; 6HR MAX TEMP:  53; 6HR PCP:  0.07;

WILLISTON      FAIR      48  46  93 S8        29.36S
6HR MIN TEMP:  46; 6HR MAX TEMP:  54;

DICKINSON      FAIR      44  43  96 W9        29.41S
6HR MIN TEMP:  38; 6HR MAX TEMP:  51; 6HR PCP: TRACE;

HETTINGER      FAIR      42  41  96 W6        29.44S FOG
6HR MIN TEMP:  40; 6HR MAX TEMP:  52;

$$

 *****  OTHER OBSERVATIONS NORTHEAST NORTH DAKOTA  *****

CITY           SKY/WX    TMP DP  RH WIND       PRES   REMARKS
WALHALLA       NOT AVBL
LANGDON        FAIR      50  45  81 SE23G31   29.49F
CAVALIER       FAIR      50  43  76 SE13      29.52F
GRAFTON        FAIR      48  43  81 SE16      29.55F
CANDO          NOT AVBL
FORT TOTTEN      N/A     51  44  76 S16       29.95S
ROLLA          CLOUDY    50  46  87 S15G24    29.45S
RUGBY          NOT AVBL
 ***** THE ABOVE OBSERVATIONS ARE NON NWS ARE NOT QUALITY
        CONTROLLED AND MAY MIS-REPORT RAIN FOR SNOW...
$$

 *****  OTHER OBSERVATIONS SOUTHEAST NORTH DAKOTA *****

CITY           SKY/WX    TMP DP  RH WIND       PRES   REMARKS
COOPERSTOWN    CLOUDY    50  45  81 SE20G25   29.50S
VALLEY CITY    PTSUNNY   50  50 100 SE16G23   29.51R
OAKES          NOT AVBL
GWINNER        SUNNY     48  46  93 MISG      29.50F
SHEYENNE NWR     N/A     50  46  87 SE14      29.95S
BUFFALO        NOT AVBL
WYNDMERE         N/A     50  45  81 SE15        N/A
 ***** THE ABOVE OBSERVATIONS ARE NON NWS ARE NOT QUALITY
       CONTROLLED AND MAY MIS-REPORT RAIN FOR SNOW...
$$

  *****  WEATHER ACROSS NORTHERN MINNESOTA  *****

CITY           SKY/WX    TMP DP  RH WIND       PRES   REMARKS
FLAG ISLAND    FAIR      50  43  76 SE15      29.66F
WARROAD        FAIR      48  45  87 SE9       29.66F
ROSEAU         FAIR      48  45  87 SE10      29.64F
HALLOCK        FAIR      52  43  71 SE15      29.56F
THF RVR FALLS  FAIR      48  43  82 SE18      29.60F
6HR MIN TEMP:  46; 6HR MAX TEMP:  51;

HALSTAD          N/A     50  45  81 SE18        N/A
FOSSTON        FAIR      46  45  93 SE8       29.63F
BAUDETTE       FAIR      45  41  86 SE9       29.69F
6HR MIN TEMP:  40; 6HR MAX TEMP:  47;

WASKISH        FAIR      45  43  93 E5        29.69S
CROOKSTON      FAIR      52  45  76 SE16      29.57F
$$
  *****  WEATHER ACROSS CENTRAL AND WEST MINNESOTA  *****

CITY           SKY/WX    TMP DP  RH WIND       PRES   REMARKS
BEMIDJI        FAIR      47  44  90 SE9       29.67R
PARK RAPIDS    FAIR      50  43  77 SE9       29.66S
6HR MIN TEMP:  47; 6HR MAX TEMP:  54;

WADENA         FAIR      46  45  93 SE7       29.66S
DETROIT LAKES  FAIR      48  45  87 SE14      29.63F
MOORHEAD       FAIR      52  43  71 SE16      29.55F
FERGUS FALLS   FAIR      52  45  76 SE14      29.60F
ELBOW LAKE     FAIR      51  45  80 E14       29.61F
6HR MIN TEMP:  48; 6HR MAX TEMP:  51;

MORRIS MN      FAIR      50  45  81 SE16      29.61F
STAPLES        FAIR      46  45  93 SE5       29.68S
WHEATON        FAIR      48  45  87 SE22      29.56F
$$
  *****  WEATHER ELSEWHERE ACROSS MINNESOTA  *****

CITY           SKY/WX    TMP DP  RH WIND       PRES   REMARKS
DULUTH         PTSUNNY   45  42  89 E5        29.75R
6HR MIN TEMP:  40; 6HR MAX TEMP:  45;

INTRNTL FALLS  FAIR      45  39  79 SE7       29.73S
6HR MIN TEMP:  39; 6HR MAX TEMP:  45;

ELY            FAIR      37  37 100 CALM      29.77R
CLOQUET        PTSUNNY   41  39  93 CALM      29.75R
BRAINERD       FAIR      49  46  90 SE8       29.70S
6HR MIN TEMP:  47; 6HR MAX TEMP:  52;

HIBBING        FAIR      41  40  96 CALM      29.74R
6HR MIN TEMP:  30; 6HR MAX TEMP:  41;

ALEXANDRIA     FAIR      48  44  86 SE12      29.66F
6HR MIN TEMP:  45; 6HR MAX TEMP:  48;

SAINT CLOUD    FAIR      49  48  97 E6        29.71R
6HR MIN TEMP:  46; 6HR MAX TEMP:  52;

MINNEAPOLIS    FAIR      52  48  86 SE6       29.72R
6HR MIN TEMP:  50; 6HR MAX TEMP:  55;

$$

  *****  WEATHER ACROSS SOUTH DAKOTA  *****

CITY           SKY/WX    TMP DP  RH WIND       PRES   REMARKS
SIOUX FALLS    PTSUNNY   53  47  79 S13       29.61R
6HR MIN TEMP:  50; 6HR MAX TEMP:  53;

BROOKINGS      PTSUNNY   49  45  86 SE14      29.60S
WATERTOWN      FAIR      49  45  86 SE20G29   29.54F
6HR MIN TEMP:  47; 6HR MAX TEMP:  50; 6HR PCP:  0.01;

HURON          FAIR      52  44  74 SE20G28   29.48F
6HR MIN TEMP:  51; 6HR MAX TEMP:  53; 6HR PCP: TRACE;

SISSETON         N/A     48  47  96 S13       29.55F
ABERDEEN       FAIR      52  43  71 SE23G31   29.45F
6HR MIN TEMP:  51; 6HR MAX TEMP:  53; 6HR PCP:  0.03;

MITCHELL       FAIR      53  44  71 SE22      29.51F
PIERRE         FAIR      52  44  74 SE14      29.34S
6HR MIN TEMP:  52; 6HR MAX TEMP:  57;

MOBRIDGE       FAIR      51  44  77 SE10      29.35R
RAPID CITY     FAIR      51  41  68 NW10      29.47R
6HR MIN TEMP:  45; 6HR MAX TEMP:  63;

$$

  *****  SOME WEATHER IN NEARBY STATES *****

CITY           SKY/WX    TMP DP  RH WIND       PRES   REMARKS
GLASGOW MT     LGT RAIN  50  40  68 W23G32    29.31S
6HR MIN TEMP:  45; 6HR MAX TEMP:  51; 6HR PCP: TRACE;

GREAT FALLS MT CLOUDY    44  39  82 W21G31    29.60F
6HR MIN TEMP:  40; 6HR MAX TEMP:  47; 6HR PCP:  0.39;

CHEYENNE WY    FAIR      51  41  68 NW8       29.62S
6HR MIN TEMP:  51; 6HR MAX TEMP:  57;

SCOTTSBLUFF NE FAIR      55  46  71 NW3       29.52F
6HR MIN TEMP:  53; 6HR MAX TEMP:  60;

OMAHA NE       FAIR      53  47  79 SE10      29.65S
6HR MIN TEMP:  49; 6HR MAX TEMP:  55;

DES MOINES IA  FAIR      52  47  83 SE5       29.70S
6HR MIN TEMP:  46; 6HR MAX TEMP:  53;

DAVENPORT IA   CLOUDY    53  50  89 NE9       29.67R
6HR MIN TEMP:  50; 6HR MAX TEMP:  54;

CHICAGO IL     CLOUDY    55  50  83 N13       29.58R
6HR MIN TEMP:  54; 6HR MAX TEMP:  56;

EAU CLAIRE WI  FAIR      53  50  89 CALM      29.72R
6HR MIN TEMP:  49; 6HR MAX TEMP:  53;

LA CROSSE WI   PTSUNNY   50  49  96 CALM      29.71R FOG
6HR MIN TEMP:  44; 6HR MAX TEMP:  53;

$$

  *****  SOME NATIONAL WEATHER *****

CITY           SKY/WX    TMP DP  RH WIND       PRES   REMARKS
LA GUARDIA NY  LGT RAIN  57  55  93 NE13      29.69F



USA.gov is the U.S. government's official web portal to all federal, state and local government web resources and services.